When you browse on this site, cookies collect data to enhance your experience and personalize the content and advertising you see.
Visit our Privacy Policy to learn more. By continuing to use the site, you agree to this use of cookies and data.

Hourly Weather Santa Fe

Today, 23 September, Wednesday

Time Temperature Precipitation Wind Pressure Humidity
00:00 +12°C° 0 mm 3 mps 762 mmHg 78%
01:00 +12°C° 0 mm 2 mps 762 mmHg 80%
02:00 +12°C° 0 mm 2 mps 762 mmHg 82%
03:00 +12°C° 0 mm 2 mps 762 mmHg 84%
04:00 +10°C° 0 mm 2 mps 762 mmHg 86%
05:00 +10°C° 0 mm 2 mps 762 mmHg 89%
06:00 +13°C° 0 mm 2 mps 762 mmHg 82%
07:00 +14°C° 0 mm 2 mps 763 mmHg 75%
08:00 +16°C° 0 mm 2 mps 764 mmHg 68%
09:00 +19°C° 0 mm 2 mps 763 mmHg 59%
10:00 +21°C° 0 mm 2 mps 763 mmHg 51%
11:00 +24°C° 0 mm 2 mps 763 mmHg 43%
12:00 +25°C° 0 mm 2 mps 762 mmHg 40%
13:00 +27°C° 0 mm 2 mps 762 mmHg 37%
14:00 +28°C° 0 mm 2 mps 761 mmHg 33%
15:00 +27°C° 0 mm 2 mps 761 mmHg 38%
16:00 +26°C° 0 mm 2 mps 760 mmHg 42%
17:00 +26°C° 0 mm 2 mps 760 mmHg 46%
18:00 +24°C° 0 mm 2 mps 760 mmHg 52%
19:00 +20°C° 0 mm 3 mps 761 mmHg 59%
20:00 +18°C° 0 mm 3 mps 761 mmHg 65%
21:00 +18°C° 0 mm 3 mps 761 mmHg 67%
22:00 +17°C° 0 mm 3 mps 761 mmHg 69%
23:00 +16°C° 0 mm 3 mps 761 mmHg 72%

Tomorrow, 24 September, Thursday

Time Temperature Precipitation Wind Pressure Humidity
00:00 +16°C° 0 mm 3 mps 761 mmHg 72%
01:00 +16°C° 0 mm 2 mps 761 mmHg 73%
02:00 +15°C° 0 mm 2 mps 760 mmHg 74%
03:00 +15°C° 0 mm 2 mps 760 mmHg 75%
04:00 +14°C° 0 mm 3 mps 760 mmHg 75%
05:00 +14°C° 0 mm 3 mps 760 mmHg 76%
06:00 +16°C° 0 mm 3 mps 760 mmHg 74%
07:00 +18°C° 0 mm 3 mps 761 mmHg 72%
08:00 +19°C° 0 mm 4 mps 761 mmHg 69%
09:00 +21°C° 0 mm 4 mps 760 mmHg 65%
10:00 +25°C° 0 mm 4 mps 760 mmHg 60%
11:00 +27°C° 0 mm 4 mps 759 mmHg 55%
12:00 +28°C° 0 mm 4 mps 759 mmHg 52%
13:00 +30°C° 0 mm 4 mps 758 mmHg 50%
14:00 +32°C° 0 mm 4 mps 757 mmHg 48%
15:00 +30°C° 0 mm 4 mps 757 mmHg 52%
16:00 +29°C° 0 mm 4 mps 756 mmHg 56%
17:00 +29°C° 0 mm 3 mps 756 mmHg 60%
18:00 +27°C° 0 mm 4 mps 756 mmHg 66%
19:00 +26°C° 0 mm 4 mps 757 mmHg 72%
20:00 +23°C° 0 mm 4 mps 757 mmHg 78%
21:00 +23°C° 0 mm 4 mps 757 mmHg 78%
22:00 +23°C° 0 mm 4 mps 757 mmHg 78%
23:00 +22°C° 0 mm 4 mps 757 mmHg 78%

Day after tomorrow, 25 September, Friday

Time Temperature Precipitation Wind Pressure Humidity
00:00 +22°C° 0 mm 4 mps 757 mmHg 77%
01:00 +22°C° 0 mm 4 mps 756 mmHg 77%
02:00 +22°C° 0 mm 4 mps 756 mmHg 76%
03:00 +22°C° 0 mm 4 mps 756 mmHg 77%
04:00 +22°C° 0 mm 4 mps 756 mmHg 77%
05:00 +21°C° 0 mm 4 mps 756 mmHg 77%
06:00 +21°C° 0.3 mm 4 mps 756 mmHg 78%
07:00 +21°C° 0.3 mm 4 mps 756 mmHg 79%
08:00 +21°C° 0.3 mm 5 mps 757 mmHg 80%
09:00 +22°C° 0.3 mm 5 mps 756 mmHg 76%
10:00 +23°C° 0.3 mm 5 mps 756 mmHg 73%
11:00 +26°C° 0.3 mm 5 mps 755 mmHg 70%
12:00 +26°C° 0.2 mm 5 mps 755 mmHg 69%
13:00 +27°C° 0.2 mm 4 mps 754 mmHg 68%
14:00 +27°C° 0.2 mm 4 mps 753 mmHg 66%
15:00 +27°C° 0 mm 4 mps 753 mmHg 68%
16:00 +26°C° 0 mm 3 mps 752 mmHg 70%
17:00 +26°C° 0 mm 3 mps 752 mmHg 71%
18:00 +25°C° 0.1 mm 3 mps 752 mmHg 76%
19:00 +24°C° 0.1 mm 3 mps 752 mmHg 81%
20:00 +21°C° 0.1 mm 4 mps 753 mmHg 85%
21:00 +21°C° 0.6 mm 4 mps 752 mmHg 88%
22:00 +21°C° 0.6 mm 4 mps 752 mmHg 90%
23:00 +20°C° 0.6 mm 4 mps 752 mmHg 92%

26 September, Saturday

Time Temperature Precipitation Wind Pressure Humidity
00:00 +20°C° 1.2 mm 4 mps 752 mmHg 93%
01:00 +20°C° 1.2 mm 4 mps 752 mmHg 93%
02:00 +20°C° 1.2 mm 4 mps 752 mmHg 94%
03:00 +20°C° 1.5 mm 4 mps 751 mmHg 94%
04:00 +20°C° 1.5 mm 4 mps 751 mmHg 95%
05:00 +20°C° 1.5 mm 4 mps 751 mmHg 96%
06:00 +20°C° 0.8 mm 4 mps 751 mmHg 94%
07:00 +21°C° 0.8 mm 4 mps 751 mmHg 92%
08:00 +22°C° 0.8 mm 5 mps 751 mmHg 90%
09:00 +22°C° 0.3 mm 4 mps 751 mmHg 88%
10:00 +24°C° 0.3 mm 3 mps 751 mmHg 85%
11:00 +25°C° 0.3 mm 2 mps 751 mmHg 83%
12:00 +25°C° 0.1 mm 3 mps 751 mmHg 83%
13:00 +25°C° 0.1 mm 3 mps 751 mmHg 83%
14:00 +25°C° 0.1 mm 3 mps 751 mmHg 82%
15:00 +25°C° 0 mm 4 mps 751 mmHg 83%
16:00 +25°C° 0 mm 4 mps 751 mmHg 83%
17:00 +23°C° 0 mm 4 mps 751 mmHg 83%
18:00 +22°C° 0 mm 5 mps 751 mmHg 83%
19:00 +21°C° 0 mm 6 mps 752 mmHg 84%
20:00 +20°C° 0 mm 6 mps 753 mmHg 84%
21:00 +19°C° 0 mm 6 mps 753 mmHg 85%
22:00 +17°C° 0 mm 6 mps 754 mmHg 86%
23:00 +16°C° 0 mm 7 mps 754 mmHg 87%

27 September, Sunday

Time Temperature Precipitation Wind Pressure Humidity
00:00 +16°C° 0 mm 6 mps 754 mmHg 87%
01:00 +15°C° 0 mm 6 mps 754 mmHg 88%
02:00 +14°C° 0 mm 5 mps 754 mmHg 89%
03:00 +14°C° 0 mm 5 mps 754 mmHg 89%
04:00 +13°C° 0 mm 4 mps 754 mmHg 89%
05:00 +12°C° 0 mm 3 mps 755 mmHg 88%
06:00 +13°C° 0 mm 4 mps 755 mmHg 82%
07:00 +15°C° 0 mm 4 mps 756 mmHg 75%
08:00 +16°C° 0 mm 5 mps 756 mmHg 68%
09:00 +19°C° 0 mm 5 mps 756 mmHg 61%
10:00 +21°C° 0 mm 5 mps 757 mmHg 53%
11:00 +23°C° 0 mm 6 mps 757 mmHg 46%
12:00 +25°C° 0 mm 5 mps 756 mmHg 42%
13:00 +26°C° 0 mm 5 mps 756 mmHg 38%
14:00 +26°C° 0 mm 5 mps 756 mmHg 34%
15:00 +26°C° 0 mm 4 mps 756 mmHg 38%
16:00 +25°C° 0 mm 3 mps 755 mmHg 42%
17:00 +25°C° 0 mm 2 mps 755 mmHg 47%
18:00 +23°C° 0 mm 2 mps 756 mmHg 51%
19:00 +20°C° 0 mm 2 mps 756 mmHg 55%
20:00 +18°C° 0 mm 1 mps 757 mmHg 58%
21:00 +17°C° 0 mm 2 mps 757 mmHg 63%
22:00 +16°C° 0 mm 2 mps 758 mmHg 68%
23:00 +14°C° 0 mm 3 mps 759 mmHg 72%

28 September, Monday

Time Temperature Precipitation Wind Pressure Humidity
00:00 +15°C° 0 mm 2 mps 758 mmHg 77%
01:00 +14°C° 0 mm 2 mps 758 mmHg 81%
02:00 +13°C° 0 mm 2 mps 758 mmHg 86%
03:00 +13°C° 0 mm 2 mps 758 mmHg 87%
04:00 +12°C° 0 mm 2 mps 758 mmHg 87%
05:00 +12°C° 0 mm 2 mps 759 mmHg 88%
06:00 +14°C° 0 mm 2 mps 759 mmHg 81%
07:00 +15°C° 0 mm 2 mps 759 mmHg 75%
08:00 +17°C° 0 mm 3 mps 759 mmHg 68%
09:00 +19°C° 0 mm 3 mps 759 mmHg 60%
10:00 +21°C° 0 mm 3 mps 758 mmHg 51%
11:00 +25°C° 0 mm 3 mps 758 mmHg 43%
12:00 +25°C° 0 mm 3 mps 757 mmHg 40%
13:00 +26°C° 0 mm 3 mps 756 mmHg 38%
14:00 +27°C° 0 mm 3 mps 755 mmHg 35%
15:00 +26°C° 0 mm 3 mps 755 mmHg 40%
16:00 +25°C° 0 mm 4 mps 754 mmHg 45%
17:00 +23°C° 0 mm 4 mps 754 mmHg 49%
18:00 +21°C° 0 mm 4 mps 754 mmHg 53%
19:00 +19°C° 0 mm 4 mps 754 mmHg 57%
20:00 +18°C° 0 mm 4 mps 755 mmHg 61%
21:00 +17°C° 0 mm 3 mps 755 mmHg 64%
22:00 +16°C° 0 mm 3 mps 755 mmHg 68%
23:00 +14°C° 0 mm 3 mps 755 mmHg 71%
Show more